Time,TemperatureF,DewpointF,PressureIn,WindDirection,WindDirectionDegrees,WindSpeedMPH,WindSpeedGustMPH,Humidity,HourlyPrecipIn,Conditions,Clouds,dailyrainin,SoftwareType,DateUTC
2015-06-30 00:04:00,72.0,65.0,29.94,SSW,195,0.0,-999.0,80,-99.99,,,-99.99,,2015-06-30 04:04:00,
2015-06-30 00:23:00,71.0,65.0,29.95,SSW,194,0.0,-999.0,82,-99.99,,,-99.99,,2015-06-30 04:23:00,
2015-06-30 01:24:00,69.0,64.0,29.94,SSW,194,0.0,-999.0,84,-99.99,,,-99.99,,2015-06-30 05:24:00,
2015-06-30 01:34:00,69.0,64.0,29.94,SSW,194,0.0,-999.0,84,-99.99,,,-99.99,,2015-06-30 05:34:00,
2015-06-30 01:44:00,69.0,65.0,29.93,SSW,194,0.0,-999.0,86,-99.99,,,-99.99,,2015-06-30 05:44:00,
2015-06-30 01:54:00,69.0,65.0,29.93,SSW,195,0.0,-999.0,86,-99.99,,,-99.99,,2015-06-30 05:54:00,
2015-06-30 02:04:00,69.0,65.0,29.93,SSW,194,0.0,-999.0,86,-99.99,,,-99.99,,2015-06-30 06:04:00,
2015-06-30 02:13:00,69.0,65.0,29.93,SSW,195,0.0,-999.0,87,-99.99,,,-99.99,,2015-06-30 06:13:00,
2015-06-30 02:23:00,69.0,65.0,29.93,SSW,194,0.0,-999.0,86,-99.99,,,-99.99,,2015-06-30 06:23:00,
2015-06-30 02:34:00,69.0,65.0,29.93,SSW,194,0.0,-999.0,86,-99.99,,,-99.99,,2015-06-30 06:34:00,
2015-06-30 02:44:00,69.0,65.0,29.93,SSW,194,0.0,-999.0,87,-99.99,,,-99.99,,2015-06-30 06:44:00,
2015-06-30 03:04:00,69.0,65.0,29.91,SSW,195,0.0,-999.0,86,-99.99,,,-99.99,,2015-06-30 07:04:00,
2015-06-30 03:12:00,69.0,65.0,29.92,SSW,194,0.0,-999.0,86,-99.99,,,-99.99,,2015-06-30 07:12:00,
2015-06-30 03:34:00,69.0,65.0,29.93,SSW,195,0.0,-999.0,88,-99.99,,,-99.99,,2015-06-30 07:34:00,
2015-06-30 03:44:00,69.0,65.0,29.93,SSW,195,0.0,-999.0,87,-99.99,,,-99.99,,2015-06-30 07:44:00,
2015-06-30 04:04:00,69.0,65.0,29.92,SSW,195,0.0,-999.0,87,-99.99,,,-99.99,,2015-06-30 08:04:00,
2015-06-30 04:13:00,69.0,65.0,29.92,SSW,195,0.0,-999.0,87,-99.99,,,-99.99,,2015-06-30 08:13:00,
2015-06-30 04:23:00,69.0,65.0,29.93,SSW,195,0.0,-999.0,87,-99.99,,,-99.99,,2015-06-30 08:23:00,
2015-06-30 04:34:00,69.0,65.0,29.93,ENE,62,2.0,-999.0,88,-99.99,,,-99.99,,2015-06-30 08:34:00,
2015-06-30 04:44:00,69.0,65.0,29.93,West,267,1.0,-999.0,88,-99.99,,,-99.99,,2015-06-30 08:44:00,
2015-06-30 04:53:00,69.0,65.0,29.93,West,280,0.0,-999.0,87,-99.99,,,-99.99,,2015-06-30 08:53:00,
2015-06-30 05:04:00,69.0,65.0,29.93,West,280,0.0,-999.0,87,-99.99,,,-99.99,,2015-06-30 09:04:00,
2015-06-30 05:13:00,69.0,65.0,29.93,West,280,0.0,-999.0,88,-99.99,,,-99.99,,2015-06-30 09:13:00,
2015-06-30 05:24:00,69.0,65.0,29.93,West,280,0.0,-999.0,88,-99.99,,,-99.99,,2015-06-30 09:24:00,
2015-06-30 05:34:00,69.0,65.0,29.93,West,280,0.0,-999.0,88,-99.99,,,-99.99,,2015-06-30 09:34:00,
2015-06-30 05:44:00,69.0,66.0,29.93,West,280,0.0,-999.0,89,-99.99,,,-99.99,,2015-06-30 09:44:00,
2015-06-30 06:03:00,69.0,66.0,29.93,West,280,0.0,-999.0,90,-99.99,,,-99.99,,2015-06-30 10:03:00,
2015-06-30 06:13:00,69.0,66.0,29.96,NNE,33,0.0,-999.0,91,-99.99,,,-99.99,,2015-06-30 10:13:00,
2015-06-30 06:24:00,68.0,65.0,29.96,NE,34,0.0,-999.0,90,-99.99,,,-99.99,,2015-06-30 10:24:00,